GW5292 Weather Reports


time (UTC)temp
C
wind
direction
speed
KPH
gust
KPH
rain 1hr
cm
rain 24hr
cm
rain mn
cm
humidity
%
barometer
mb
20260904213024 27 150 0.0 3.2 0.00 0.51 0.00 71 1011.6
20260904211530 27 193 0.0 3.2 0.00 0.51 0.00 71 1011.5
20260904210037 27 181 0.0 3.2 0.00 0.51 0.00 70 1011.5
20260904204515 28 184 1.6 4.8 0.00 0.51 0.00 67 1011.5
20260904203033 28 127 0.0 3.2 0.00 0.51 0.00 68 1011.3
20260904201528 28 156 0.0 3.2 0.00 0.51 0.00 66 1011.2
20260904200037 28 202 0.0 3.2 0.00 0.51 0.00 69 1011.5
20260904194547 27 52 0.0 3.2 0.00 0.51 0.00 68 1011.7
20260904193021 28 137 0.0 3.2 0.00 0.51 0.00 68 1012.2
20260904191538 28 126 1.6 4.8 0.00 0.51 0.00 68 1012.3
20260904190032 28 159 1.6 4.8 0.00 0.51 0.00 66 1012.4
20260904184534 28 178 1.6 8.0 0.00 0.51 0.00 66 1012.6
20260904183017 28 164 1.6 4.8 0.00 0.51 0.00 66 1012.8
20260904181523 28 179 3.2 4.8 0.00 0.51 0.00 65 1012.9
20260904180029 28 186 1.6 6.4 0.00 0.51 0.00 66 1012.9
20260904174556 28 169 1.6 6.4 0.00 0.51 0.00 67 1013.2
20260904173035 28 183 1.6 3.2 0.00 0.51 0.00 67 1013.1
20260904171505 28 170 0.0 6.4 0.00 0.51 0.00 68 1013.0
20260904170004 27 190 1.6 4.8 0.00 0.51 0.00 71 1012.9
20260904164507 27 159 1.6 4.8 0.00 0.51 0.00 71 1013.2
20260904163004 27 236 1.6 6.4 0.00 0.51 0.00 69 1013.4
20260904161505 27 30 1.6 8.0 0.00 0.51 0.00 74 1013.3
20260904160006 27 159 0.0 3.2 0.00 0.51 0.00 71 1013.3
20260904154504 27 219 1.6 4.8 0.00 0.51 0.00 69 1013.3
20260904153008 27 228 1.6 4.8 0.00 0.51 0.00 73 1013.5
20260904151507 27 319 0.0 3.2 0.00 0.51 0.00 76 1013.4
20260904150010 26 11 1.6 4.8 0.00 0.51 0.00 77 1013.5
20260904144508 26 190 1.6 4.8 0.00 0.51 0.00 76 1013.6
20260904143006 25 209 1.6 6.4 0.00 0.51 0.00 77 1013.6
20260904141509 24 184 1.6 3.2 0.00 0.51 0.00 81 1013.6
20260904140011 24 196 0.0 8.0 0.00 0.51 0.00 80 1013.7
20260904134511 24 187 3.2 6.4 0.00 0.51 0.00 81 1013.6
20260904133013 23 182 1.6 4.8 0.00 0.51 0.00 82 1013.6
20260904131512 23 186 1.6 4.8 0.00 0.51 0.00 86 1013.7
20260904130012 23 215 1.6 3.2 0.00 0.51 0.00 86 1013.7
20260904124513 23 181 1.6 3.2 0.00 0.51 0.00 87 1013.8
20260904123014 22 198 0.0 3.2 0.00 0.51 0.00 89 1013.7
20260904121513 22 192 0.0 3.2 0.00 0.51 0.00 91 1013.5
20260904120017 21 207 1.6 3.2 0.00 0.51 0.00 93 1013.8
20260904114515 21 194 0.0 3.2 0.00 0.51 0.00 94 1013.6
20260904113020 21 198 0.0 3.2 0.00 0.51 0.00 95 1013.4
20260904111519 20 195 1.6 3.2 0.00 0.51 0.00 95 1013.4
20260904110036 20 199 0.0 0.0 0.00 0.53 0.00 94 1013.3
20260904104518 21 199 0.0 1.6 0.00 0.53 0.00 94 1013.0
20260904103023 21 199 0.0 3.2 0.00 0.53 0.00 93 1012.8
20260904101524 21 197 1.6 3.2 0.00 0.56 0.00 94 1012.8
20260904100025 21 201 1.6 3.2 0.00 0.61 0.00 94 1012.7
20260904094523 21 189 1.6 3.2 0.00 0.64 0.00 94 1012.8
20260904093023 21 189 1.6 3.2 0.00 0.64 0.00 93 1012.9
20260904091525 21 207 1.6 4.8 0.00 0.64 0.00 93 1012.9
20260904090028 21 203 3.2 4.8 0.00 0.64 0.00 94 1012.9
20260904084526 21 188 1.6 3.2 0.00 0.66 0.00 95 1012.8
20260904083029 22 209 1.6 3.2 0.00 0.74 0.00 95 1012.6
20260904081526 22 198 3.2 4.8 0.00 0.84 0.00 96 1012.7
20260904080008 22 199 3.2 3.2 0.00 0.91 0.00 97 1012.4
20260904074515 21 155 0.0 1.6 0.00 1.02 0.00 97 1012.5
20260904073017 22 42 0.0 0.0 0.00 1.09 0.00 96 1012.4
20260904071522 22 42 0.0 0.0 0.00 1.24 0.00 96 1012.2
20260904070043 22 42 0.0 0.0 0.00 1.32 0.00 96 1011.7
20260904064508 22 42 0.0 0.0 0.00 1.32 0.00 96 1011.7
20260904063016 22 41 0.0 0.0 0.00 1.32 0.00 95 1011.3
20260904061524 22 41 0.0 0.0 0.00 1.32 0.00 96 1011.6
20260904060032 22 41 0.0 0.0 0.00 1.32 0.00 96 1011.8
20260904054533 22 41 0.0 0.0 0.00 1.32 0.00 96 1011.8
20260904053013 22 41 0.0 0.0 0.00 1.32 0.00 95 1012.1
20260904051517 23 41 0.0 0.0 0.00 1.47 0.00 95 1012.2
20260904050026 23 42 0.0 0.0 0.00 2.13 0.00 95 1012.3
20260904044535 23 42 0.0 0.0 0.43 2.77 0.00 95 1012.3
20260904043035 23 42 0.0 0.0 0.51 3.07 0.00 94 1012.5
20260904041516 23 42 0.0 4.8 0.51 3.07 0.00 94 1012.5
20260904040023 24 338 0.0 3.2 0.51 3.07 0.00 92 1012.8
20260904034544 25 212 4.8 8.0 0.08 2.64 2.64 88 1013.2
20260904033034 24 208 0.0 3.2 0.00 2.57 2.57 87 1012.7
20260904031534 24 208 0.0 0.0 0.00 2.57 2.57 88 1013.1
20260904030020 24 208 0.0 1.6 0.00 2.57 2.57 88 1013.2
20260904024526 24 208 0.0 1.6 0.00 2.57 2.57 89 1013.3
20260904023029 24 208 0.0 1.6 0.00 2.57 2.57 88 1012.9
20260904021531 25 208 0.0 0.0 0.00 2.57 2.57 86 1012.9
20260904020036 25 208 0.0 0.0 0.00 2.57 2.57 84 1013.0
20260904014523 25 208 0.0 3.2 0.00 2.57 2.57 83 1013.4
20260904013027 26 208 0.0 0.0 0.00 2.57 2.57 81 1013.5
20260904011557 26 208 1.6 4.8 0.00 2.57 2.57 81 1013.3
20260904010036 25 213 1.6 3.2 0.00 2.57 2.57 82 1013.5
20260904004532 26 208 0.0 3.2 0.00 2.57 2.57 82 1013.5
20260904003027 26 208 1.6 3.2 0.00 2.57 2.57 81 1013.7
20260904001506 26 213 0.0 3.2 0.00 2.57 2.57 80 1013.6
20260904000013 26 200 1.6 3.2 0.00 2.57 2.57 80 1013.0
20260903234534 26 200 0.0 0.0 0.00 2.57 2.57 81 1012.9
20260903233026 26 200 0.0 3.2 0.00 2.57 2.57 79 1013.2
20260903231527 26 200 1.6 3.2 0.00 2.57 2.57 80 1013.0
20260903230012 27 199 0.0 0.0 0.00 2.57 2.57 79 1013.1
20260903224511 27 199 0.0 1.6 0.00 2.57 2.57 76 1013.2
20260903223017 28 199 0.0 3.2 0.00 2.57 2.57 73 1012.8
20260903221524 28 198 1.6 4.8 0.00 2.57 2.57 71 1012.5
20260903220031 28 213 3.2 6.4 0.00 2.57 2.57 71 1012.8
20260903214509 29 194 1.6 4.8 0.00 2.57 2.57 71 1012.5